This is the latest recevied weather packets stored in our database for station/object RA1AMO-10. If no packets are shown the sender has not sent any weather packets the latest 10 day(s).
| Time | Temp. | Humidity | Pressure | Rain* | Wind** | Luminosity | Snow |
|---|---|---|---|---|---|---|---|
| 1777698152 | 9.44° C | 59% | 1010.7 hPa | - | - | - | - |
| 1777697252 | 9.44° C | 59% | 1010.6 hPa | - | - | - | - |
| 1777696352 | 8.89° C | 59% | 1010.5 hPa | - | - | - | - |
| 1777695452 | 8.89° C | 60% | 1010.6 hPa | - | - | - | - |
| 1777694552 | 8.33° C | 61% | 1010.9 hPa | - | - | - | - |
| 1777693652 | 8.33° C | 63% | 1011 hPa | - | - | - | - |
| 1777692751 | 8.33° C | 63% | 1011 hPa | - | - | - | - |
| 1777691851 | 7.78° C | 64% | 1011.2 hPa | - | - | - | - |
| 1777690951 | 7.78° C | 65% | 1011.2 hPa | - | - | - | - |
| 1777690051 | 7.78° C | 65% | 1011.4 hPa | - | - | - | - |
| 1777689151 | 7.78° C | 66% | 1011.5 hPa | - | - | - | - |
| 1777688251 | 7.78° C | 66% | 1011.7 hPa | - | - | - | - |
| 1777687350 | 7.78° C | 66% | 1011.8 hPa | - | - | - | - |
| 1777686450 | 7.78° C | 65% | 1011.8 hPa | - | - | - | - |
| 1777685550 | 7.78° C | 64% | 1011.8 hPa | - | - | - | - |
| 1777684650 | 7.78° C | 64% | 1012 hPa | - | - | - | - |
| 1777683750 | 7.78° C | 63% | 1012 hPa | - | - | - | - |
| 1777682850 | 7.78° C | 64% | 1012 hPa | - | - | - | - |
| 1777681949 | 8.33° C | 64% | 1012 hPa | - | - | - | - |
| 1777681049 | 8.33° C | 64% | 1012.1 hPa | - | - | - | - |
| 1777680149 | 8.33° C | 63% | 1012.2 hPa | - | - | - | - |
| 1777679249 | 8.33° C | 62% | 1012.3 hPa | - | - | - | - |
| 1777678349 | 8.33° C | 61% | 1012.5 hPa | - | - | - | - |
| 1777677449 | 8.89° C | 60% | 1012.5 hPa | - | - | - | - |
| 1777676549 | 8.89° C | 59% | 1012.5 hPa | - | - | - | - |
* Rain since midnight (hover to see other rain measurements)
** Current wind speed in m/s (hover to see current wind gust speed)